This demonstration page uses our WeatherBlox Daily Observations layout. Learn more.

Left ArrowRight Arrow

Hourly Observations for December 30, 2020

Temp ( °F °C ) Dew Point ( °F °C ) Humidity (%) Winds ( mph kmh ) Pressure ( in mb ) Visibility ( mi km ) Precip ( " mm )
12:15 am 00:15 Clear 32 0 27 -3 80 80 SE 10 17 30.17 1022 10 16.0934 N/A
12:35 am 00:35 Clear 32 0 27 -3 80 80 SE 14 22 30.16 1021 10 16.0934 N/A
12:55 am 00:55 Clear 32 0 27 -3 80 80 SSE 8 13 30.16 1021 10 16.0934 N/A
1:15 am 01:15 Clear 32 0 27 -3 80 80 SSE 7 11 30.17 1022 10 16.0934 N/A
1:35 am 01:35 Clear 32 0 27 -3 80 80 SSE 8 13 30.16 1021 10 16.0934 N/A
1:55 am 01:55 Clear 32 0 27 -3 80 80 Calm 30.15 1021 10 16.0934 N/A
2:15 am 02:15 Clear 32 0 27 -3 80 80 SE 10 17 30.14 1020 10 16.0934 N/A
2:35 am 02:35 Clear 32 0 28 -2 87 87 SSE 10 17 30.12 1020 10 16.0934 N/A
2:55 am 02:55 Partly Cloudy 32 0 28 -2 87 87 SSE 12 19 30.13 1020 10 16.0934 N/A
3:15 am 03:15 Clear 32 0 28 -2 87 87 SSE 10 17 30.12 1020 10 16.0934 N/A
3:35 am 03:35 Mostly Cloudy 32 0 28 -2 87 87 SSE 10 17 30.11 1019 10 16.0934 N/A
3:55 am 03:55 Cloudy 32 0 28 -2 87 87 SSE 12 19 30.09 1019 10 16.0934 N/A
4:15 am 04:15 Partly Cloudy 32 0 28 -2 87 87 SSE 12 19 30.07 1018 10 16.0934 N/A
4:35 am 04:35 Clear 34 1 30 -1 87 87 SSE 12 19 30.06 1018 10 16.0934 N/A
4:55 am 04:55 Clear 34 1 30 -1 87 87 SSE 12 19 30.05 1018 10 16.0934 N/A
5:15 am 05:15 Clear 34 1 30 -1 87 87 SSE 14 22 30.03 1017 10 16.0934 N/A
5:35 am 05:35 Clear 34 1 30 -1 87 87 SSE 12 19 30.04 1017 10 16.0934 N/A
5:55 am 05:55 Mostly Cloudy 34 1 32 0 93 93 S 10 17 30.04 1017 10 16.0934 N/A
6:15 am 06:15 Cloudy 36 2 32 0 87 87 S 12 19 30.04 1017 10 16.0934 N/A
6:35 am 06:35 Cloudy 36 2 32 0 87 87 S 12 19 30.03 1017 10 16.0934 N/A
6:55 am 06:55 Cloudy 36 2 34 1 93 93 S 12 19 30.03 1017 10 16.0934 N/A
7:15 am 07:15 Cloudy 37 3 34 1 87 87 S 9 15 30.02 1017 10 16.0934 N/A
7:35 am 07:35 Cloudy 37 3 36 2 93 93 S 10 17 30.01 1016 10 16.0934 N/A
7:55 am 07:55 Cloudy 39 4 36 2 87 87 S 12 19 30.02 1017 10 16.0934 N/A
8:15 am 08:15 Cloudy 37 3 37 3 100 100 S 9 15 30.02 1017 5 8.0467 N/A
8:35 am 08:35 Cloudy 37 3 37 3 100 100 SSW 8 13 30.03 1017 4 6.43736 N/A
8:55 am 08:55 Cloudy 37 3 37 3 100 100 S 8 13 30.03 1017 3 4.82802 N/A
9:15 am 09:15 Cloudy 37 3 37 3 100 100 S 12 19 30.01 1016 5 8.0467 N/A
9:35 am 09:35 Cloudy 37 3 37 3 100 100 S 12 19 30.01 1016 5 8.0467 N/A
9:55 am 09:55 Cloudy 39 4 39 4 100 100 S 12 19 30.01 1016 7 11.26538 N/A
10:15 am 10:15 Cloudy 41 5 41 5 100 100 S 10 17 30.01 1016 7 11.26538 N/A
10:35 am 10:35 Cloudy 41 5 41 5 100 100 S 13 20 30.01 1016 5 8.0467 N/A
10:55 am 10:55 Cloudy 41 5 41 5 100 100 S 13 20 30 1016 5 8.0467 N/A
11:15 am 11:15 Cloudy 43 6 43 6 100 100 S 10 17 30 1016 5 8.0467 N/A
11:35 am 11:35 Cloudy 43 6 43 6 100 100 S 10 17 29.99 1016 5 8.0467 N/A
11:55 am 11:55 Cloudy 45 7 45 7 100 100 S 10 17 29.98 1015 4 6.43736 N/A
12:15 pm 12:15 Cloudy 45 7 45 7 100 100 S 13 20 29.96 1015 5 8.0467 N/A
12:35 pm 12:35 Cloudy 45 7 45 7 100 100 SSW 12 19 29.96 1015 7 11.26538 N/A
12:55 pm 12:55 Cloudy 46 8 46 8 100 100 SSW 13 20 29.95 1014 5 8.0467 N/A
1:15 pm 13:15 Cloudy 46 8 46 8 100 100 SSW 12 19 29.94 1014 5 8.0467 N/A
1:35 pm 13:35 Cloudy 46 8 46 8 100 100 SSW 12 19 29.94 1014 7 11.26538 N/A
1:55 pm 13:55 Cloudy 46 8 46 8 100 100 WSW 12 19 29.94 1014 5 8.0467 N/A
2:15 pm 14:15 Cloudy 46 8 46 8 100 100 W 10 17 29.93 1013 7 11.26538 N/A
2:35 pm 14:35 Cloudy 46 8 46 8 100 100 WNW 9 15 29.93 1013 5 8.0467 N/A
2:55 pm 14:55 Cloudy 46 8 46 8 100 100 SW 10 17 29.93 1013 5 8.0467 N/A
3:15 pm 15:15 Cloudy 46 8 46 8 100 100 SW 12 19 29.93 1013 7 11.26538 N/A
3:35 pm 15:35 Cloudy 46 8 46 8 100 100 W 18 30 29.94 1014 5 8.0467 N/A
3:55 pm 15:55 Cloudy 43 6 43 6 100 100 W 14 22 29.96 1015 7 11.26538 N/A
4:15 pm 16:15 Cloudy 41 5 41 5 100 100 WNW 16 26 29.99 1015 7 11.26538 N/A
4:35 pm 16:35 Cloudy 37 3 37 3 100 100 WNW 17 28 29.99 1016 5 8.0467 N/A
4:55 pm 16:55 Cloudy 37 3 37 3 100 100 WNW 16 26 30 1016 7 11.26538 N/A
5:15 pm 17:15 Cloudy 36 2 36 2 100 100 WNW 16 26 30.02 1017 5 8.0467 N/A
5:35 pm 17:35 Cloudy 36 2 36 2 100 100 W 15 24 30.02 1017 10 16.0934 N/A
5:55 pm 17:55 Cloudy 34 1 34 1 100 100 W 14 22 30.05 1018 10 16.0934 N/A
6:15 pm 18:15 Cloudy 34 1 34 1 100 100 WNW 14 22 30.06 1018 7 11.26538 N/A
6:35 pm 18:35 Cloudy 32 0 32 0 100 100 WNW 9 15 30.08 1018 7 11.26538 N/A
6:55 pm 18:55 Cloudy 32 0 32 0 100 100 WNW 5 7 30.06 1018 3 4.82802 N/A
7:15 pm 19:15 Cloudy 32 0 32 0 100 100 W 6 9 30.08 1018 2.5 4.02335 N/A
7:35 pm 19:35 Cloudy 32 0 32 0 100 100 W 9 15 30.1 1019 1.75 2.816345 N/A
7:55 pm 19:55 Cloudy 32 0 32 0 100 100 W 10 17 30.1 1019 2 3.21868 N/A
8:15 pm 20:15 Cloudy 32 0 32 0 100 100 WNW 10 17 30.09 1019 3 4.82802 N/A
8:35 pm 20:35 Cloudy 30 -1 30 -1 100 100 WNW 8 13 30.09 1019 3 4.82802 N/A
8:55 pm 20:55 Cloudy 30 -1 30 -1 100 100 W 5 7 30.09 1019 4 6.43736 N/A
9:15 pm 21:15 Cloudy 32 0 32 0 100 100 W 8 13 30.09 1019 10 16.0934 N/A
9:35 pm 21:35 Cloudy 30 -1 30 -1 100 100 W 9 15 30.1 1019 10 16.0934 N/A
9:55 pm 21:55 Cloudy 32 0 32 0 100 100 W 10 17 30.12 1020 10 16.0934 N/A
10:15 pm 22:15 Cloudy 32 0 32 0 100 100 W 10 17 30.12 1020 10 16.0934 N/A
10:35 pm 22:35 Cloudy 30 -1 30 -1 100 100 W 12 19 30.12 1020 10 16.0934 N/A
10:55 pm 22:55 Cloudy 30 -1 30 -1 100 100 WNW 13 20 30.12 1020 10 16.0934 N/A
11:15 pm 23:15 Cloudy 30 -1 30 -1 100 100 WNW 8 13 30.13 1020 10 16.0934 N/A
11:35 pm 23:35 Cloudy 30 -1 30 -1 100 100 WNW 8 13 30.13 1020 10 16.0934 N/A
11:55 pm 23:55 Cloudy 30 -1 30 -1 100 100 WNW 12 19 30.15 1021 10 16.0934 N/A

Powered by AerisWeather